Location: Newark
(35.8582°N, 82.7116°W)
Time: 23:28:18
(UTC+00:00)

OTV 5 (USA 277) - Visible Passes

Search period start: 21 September 2019 00:00
Search period end: 01 October 2019 00:00
Orbit: 295 x 339 km, 54.5° (Epoch: 08 September)

Date Brightness Start Highest point End Pass type
(mag) Time Alt. Az. Time Alt. Az. Time Alt. Az.
28 Sep ? 10:28:02 10° SSE 10:29:05 12° SE 10:30:09 10° ESE visible
29 Sep ? 10:40:49 10° SSW 10:43:26 35° SE 10:46:03 10° ENE visible
30 Sep ? 10:55:07 10° SW 10:57:55 62° NW 11:00:43 10° NE visible
